[[{"header":{"parameterUnit":"m.s-1","parameterCategory":1,"la1":30.2991,"la2":30.254,"lo1":-89.0895,"lo2":-89.0444,"dy":0.0017,"dx":0.0017,"nx":28,"ny":28,"refTime":"2025-02-11T09:00:00:Z","depth":0,"parameterNumber":2,"parameterNumberName":"U-component_of_WINDS"},"data":[0,0,0,0,0,0,0,0,0,0,0,0,0,0,0,0,0,0,0,0,0,0,0,0,0,0,0,0,0,0,0,0,0,0,0,0,0,0,0,0,0,0,0,0,0,0,0,0,0,0,0,0,0,0,0,0,0,0,-0.4457,-0.4457,0,-0.4455,-0.4455,-0.4455,-0.4491,-0.4492,-0.4493,-0.4494,-0.4491,-0.449,-0.449,0,0,0,0,0,0,0,0,0,0,0,0,0,-0.4492,-0.4491,-0.4457,-0.4457,-0.4457,-0.4455,-0.4455,-0.4455,-0.4491,-0.4492,-0.4493,-0.4494,-0.4492,-0.4491,-0.4489,0,0,0,0,0,0,0,0,0,0,0,0,0,-0.4482,-0.4491,-0.4457,-0.4475,-0.4476,-0.4455,-0.4455,-0.4455,-0.4491,-0.4492,-0.4494,-0.4495,-0.4492,-0.4491,-0.4489,-0.4451,0,0,-0.4485,-0.4484,0,0,0,0,0,0,0,0,-0.4482,-0.448,-0.4472,-0.4474,-0.4475,-0.4475,-0.4466,-0.4453,-0.449,-0.4485,-0.4494,-0.4496,-0.4485,-0.4484,-0.448,-0.445,-0.445,-0.4485,-0.4484,-0.4483,-0.4483,0,0,0,0,0,0,0,-0.4483,-0.4481,-0.4456,-0.4472,-0.4474,-0.4482,-0.4483,-0.4464,-0.4477,-0.4486,-0.4488,-0.4488,-0.4486,-0.4482,-0.448,-0.445,-0.4485,-0.4483,-0.4482,-0.4482,-0.4386,-0.4384,0,0,0,0,0,0,-0.4481,-0.4481,-0.4456,-0.4456,-0.4482,-0.4481,-0.4481,-0.4473,-0.4477,-0.4479,-0.4486,-0.4489,-0.4483,-0.4482,-0.448,-0.4434,-0.4483,-0.4482,-0.4481,-0.4387,-0.4385,-0.4384,0,0,0,0,0,0,-0.4482,-0.4479,-0.4456,-0.4469,-0.4467,-0.4478,-0.447,-0.4473,-0.4469,-0.4477,-0.448,-0.448,-0.4484,-0.4483,-0.4457,-0.4434,-0.4481,-0.448,-0.4389,-0.4387,-0.4385,-0.4341,0,0,0,0,0,0,-0.4483,-0.4479,-0.4465,-0.4469,-0.4466,-0.4434,-0.4468,-0.4472,-0.4466,-0.447,-0.4472,-0.4474,-0.4485,-0.4459,-0.4456,-0.4433,-0.4479,-0.4392,-0.4388,-0.4385,-0.4345,-0.4337,-0.4331,0,0,0,0,0,-0.4484,-0.4453,-0.4464,-0.4461,-0.4449,-0.4432,-0.4431,-0.4445,-0.4464,-0.4449,-0.4455,-0.4474,-0.4437,-0.4456,-0.4453,-0.4429,-0.4393,-0.4389,-0.4386,-0.4348,-0.4339,-0.4331,0,0,0,0,0,0,-0.4447,-0.4454,-0.4466,-0.4436,-0.4433,-0.4438,-0.4421,-0.4436,-0.4428,-0.4432,-0.445,-0.445,-0.4421,-0.4423,-0.4444,-0.4391,-0.4418,-0.4414,-0.4391,-0.4382,-0.4376,-0.4376,-0.4477,0,0,0,0,0,-0.4435,-0.4421,-0.4428,-0.4401,-0.4399,-0.441,-0.4403,-0.4414,-0.4412,-0.4411,-0.4415,-0.4412,-0.4399,-0.4391,-0.4381,-0.4345,-0.4345,-0.4327,-0.432,-0.4314,-0.431,-0.4289,-0.4281,-0.4371,-0.4371,-0.4371,0,0,-0.4411,-0.4413,-0.4403,-0.4393,-0.4392,-0.4377,-0.4409,-0.4391,-0.438,-0.4408,-0.4384,-0.4386,-0.4384,-0.4353,-0.4339,-0.4353,-0.4285,-0.431,-0.4305,-0.4304,-0.4284,-0.4276,-0.4268,-0.4369,-0.4369,-0.437,0,0,-0.4359,-0.436,-0.4336,-0.4334,-0.4332,-0.4339,-0.4333,-0.4335,-0.4338,-0.4314,-0.4334,-0.432,-0.4299,-0.4296,-0.4292,-0.4235,-0.4251,-0.4231,-0.4196,-0.4175,-0.4168,-0.4162,-0.414,-0.4133,-0.4227,-0.4227,-0.4227,0,-0.4329,-0.4307,-0.4322,-0.4302,-0.4296,-0.4321,-0.4296,-0.4293,-0.4288,-0.4283,-0.4299,-0.4271,-0.4272,-0.4239,-0.4225,-0.4221,-0.4214,-0.4231,-0.4168,-0.4162,-0.4156,-0.4136,-0.4128,-0.4224,-0.4224,-0.4225,-0.4225,0,-0.427,-0.4253,-0.4234,-0.4227,-0.4219,-0.4198,-0.4208,-0.4198,-0.4209,-0.4214,-0.4188,-0.4189,-0.4178,-0.4171,-0.4182,-0.4139,-0.4147,-0.4165,-0.4193,-0.4145,-0.4126,-0.4118,-0.422,-0.4221,-0.4222,-0.4223,0,0,-0.4196,-0.4196,-0.4188,-0.4184,-0.4182,-0.417,-0.4148,-0.4137,-0.4127,-0.4122,-0.4103,-0.4083,-0.4099,-0.4094,-0.4105,-0.4087,-0.4039,-0.4107,-0.4107,-0.4093,-0.399,-0.3976,-0.3967,-0.405,-0.4049,-0.4048,-0.399,0,-0.4144,-0.4107,-0.4119,-0.4081,-0.4065,-0.4087,-0.4067,-0.4064,-0.4067,-0.4054,-0.4058,-0.4043,-0.4066,-0.4062,-0.4045,-0.4049,-0.4019,-0.4053,-0.4032,-0.4031,-0.4031,-0.3957,-0.3943,-0.3888,-0.3982,-0.3981,-0.398,0,-0.408,-0.4071,-0.4031,-0.4029,-0.4023,-0.4006,-0.3995,-0.3982,-0.3977,-0.3981,-0.3973,-0.3987,-0.3964,-0.3992,-0.396,-0.3983,-0.3975,-0.3975,-0.3973,-0.3972,-0.4003,-0.3953,-0.3872,-0.3863,-0.3969,-0.397,-0.3971,0,-0.4029,-0.4006,-0.3979,-0.3975,-0.3973,-0.396,-0.3958,-0.3955,-0.3946,-0.3937,-0.3931,-0.3919,-0.3912,-0.3902,-0.3911,-0.3931,-0.3877,-0.3906,-0.3878,-0.3878,-0.3866,-0.3867,-0.3782,-0.3862,-0.3862,-0.3862,-0.3862,0,-0.397,-0.3944,-0.3956,-0.3939,-0.391,-0.3923,-0.3894,-0.3895,-0.3891,-0.3874,-0.3892,-0.3876,-0.3889,-0.3873,-0.388,-0.3852,-0.3849,-0.385,-0.3852,-0.3849,-0.3848,-0.3843,-0.3847,-0.386,-0.386,-0.3861,-0.3861,0,-0.3908,-0.3915,-0.3886,-0.3885,-0.3885,-0.3863,-0.3863,-0.3846,-0.385,-0.3828,-0.3824,-0.383,-0.3812,-0.382,-0.3802,-0.3806,-0.3769,-0.3776,-0.377,-0.3772,-0.3743,-0.3746,-0.3652,-0.364,-0.3728,-0.3727,-0.3726,0,-0.387,-0.3851,-0.3847,-0.3836,-0.3833,-0.3817,-0.3807,-0.3818,-0.3808,-0.3799,-0.3784,-0.3767,-0.3755,-0.3725,-0.3727,-0.3713,-0.372,-0.3688,-0.3718,-0.3713,-0.3718,-0.3719,-0.3716,-0.3682,-0.3681,-0.368,-0.3679,0,-0.3801,-0.3804,-0.3791,-0.3777,-0.3765,-0.3755,-0.3747,-0.3737,-0.3747,-0.3734,-0.3716,-0.3706,-0.3686,-0.3669,-0.3655,-0.3653,-0.3667,-0.3669,-0.3662,-0.3658,-0.3655,-0.3655,-0.3753,-0.3672,-0.3672,-0.3673,-0.3673,-0.3674,-0.375,-0.3732,-0.3726,-0.371,-0.3704,-0.3695,-0.3679,-0.368,-0.3664,-0.3649,-0.3656,-0.3634,-0.3627,-0.361,-0.3606,-0.3588,-0.3601,-0.359,-0.3588,-0.3585,-0.358,-0.3657,-0.3586,-0.3586,-0.3586,-0.3586,-0.3587,0,-0.3681,-0.3677,-0.3662,-0.3648,-0.3634,-0.3648,-0.3638,-0.3626,-0.3606,-0.3599,-0.3585,-0.3563,-0.3545,-0.3545,-0.3529,-0.3515,-0.352,-0.351,-0.3511,-0.351,-0.3571,-0.3578,-0.3505,-0.3505,-0.3505,-0.3505,-0.3505,-0.3505,-0.3644,-0.3615,-0.3617,-0.3584,-0.3581,-0.356,-0.3553,-0.3544,-0.3537,-0.3511,-0.3497,-0.3496,-0.3491,-0.3474,-0.3458,-0.3458,-0.3451,-0.3438,-0.344,-0.3498,-0.3506,-0.3513,-0.3521,-0.3436,-0.3436,-0.3381,-0.338,-0.338]},{"header":{"parameterUnit":"m.s-1","parameterCategory":1,"la1":30.2991,"la2":30.254,"lo1":-89.0895,"lo2":-89.0444,"dy":0.0017,"dx":0.0017,"nx":28,"ny":28,"refTime":"2025-02-11T09:00:00:Z","depth":0,"parameterNumber":3,"parameterNumberName":"V-component_of_WINDS"},"data":[0,0,0,0,0,0,0,0,0,0,0,0,0,0,0,0,0,0,0,0,0,0,0,0,0,0,0,0,0,0,0,0,0,0,0,0,0,0,0,0,0,0,0,0,0,0,0,0,0,0,0,0,0,0,0,0,0,0,3.8546,3.8548,0,3.8767,3.877,3.8772,3.8835,3.8834,3.8833,3.8831,3.9058,3.9065,3.9072,0,0,0,0,0,0,0,0,0,0,0,0,0,3.8178,3.8185,3.8545,3.8548,3.8551,3.8767,3.877,3.8773,3.8835,3.8834,3.8832,3.8831,3.9056,3.9064,3.9073,0,0,0,0,0,0,0,0,0,0,0,0,0,3.8362,3.8187,3.8545,3.8608,3.8616,3.8766,3.877,3.8774,3.8835,3.8834,3.8832,3.883,3.9053,3.9064,3.9074,3.9177,0,0,3.9107,3.9112,0,0,0,0,0,0,0,0,3.8352,3.8376,3.8596,3.8604,3.8613,3.8772,3.8724,3.8909,3.8836,3.8752,3.8831,3.8829,3.8964,3.8982,3.9028,3.9188,3.9198,3.9108,3.9115,3.9119,3.9122,0,0,0,0,0,0,0,3.8339,3.8367,3.8633,3.8599,3.861,3.8626,3.865,3.8759,3.8866,3.8759,3.8764,3.879,3.8969,3.9017,3.9034,3.9201,3.9108,3.9117,3.9124,3.9128,3.9461,3.9463,0,0,0,0,0,0,3.8315,3.8356,3.8626,3.864,3.8475,3.8634,3.8661,3.8723,3.8865,3.8885,3.8791,3.8792,3.9,3.9021,3.9042,3.9175,3.9119,3.9129,3.9136,3.9459,3.9462,3.9464,0,0,0,0,0,0,3.8307,3.8339,3.8617,3.8499,3.8536,3.8642,3.8711,3.8728,3.8777,3.8889,3.8908,3.8821,3.8999,3.9027,3.9144,3.9184,3.9134,3.9144,3.9456,3.946,3.9463,3.944,0,0,0,0,0,0,3.8296,3.8336,3.8375,3.85,3.8542,3.8715,3.8713,3.8734,3.8795,3.8798,3.8922,3.8941,3.9,3.9128,3.9155,3.9198,3.9152,3.9453,3.9458,3.9462,3.9438,3.9442,3.9446,0,0,0,0,0,3.8283,3.8359,3.8377,3.8409,3.8594,3.8717,3.8741,3.8808,3.8798,3.8839,3.8912,3.8937,3.9175,3.9139,3.917,3.9217,3.9451,3.9456,3.9462,3.9436,3.9441,3.9446,0,0,0,0,0,0,3.8236,3.8376,3.8398,3.8516,3.8604,3.8727,3.8781,3.8811,3.8903,3.8902,3.8981,3.9008,3.9121,3.918,3.9138,3.9326,3.9313,3.9325,3.9283,3.929,3.9294,3.9278,3.9161,0,0,0,0,0,3.8239,3.8327,3.8445,3.8539,3.8582,3.8674,3.873,3.8774,3.8868,3.8906,3.8987,3.9077,3.9173,3.9234,3.9328,3.9446,3.9476,3.9494,3.9498,3.9501,3.9511,3.9581,3.9592,3.9482,3.9482,3.9482,0,0,3.8247,3.8335,3.8385,3.8531,3.8605,3.8696,3.8705,3.8799,3.8868,3.892,3.9037,3.9099,3.9206,3.9325,3.9382,3.9378,3.9548,3.9508,3.9509,3.9518,3.9588,3.9598,3.9607,3.9485,3.9485,3.9484,0,0,3.8308,3.8382,3.847,3.8544,3.8655,3.8716,3.8737,3.8857,3.8901,3.9019,3.9061,3.9144,3.9305,3.9381,3.9441,3.9533,3.9561,3.9561,3.9584,3.9652,3.9661,3.9669,3.9705,3.9716,3.957,3.957,3.957,0,3.8304,3.8442,3.8511,3.8605,3.8669,3.8721,3.8811,3.8879,3.9015,3.9059,3.9053,3.926,3.9335,3.9474,3.9497,3.9542,3.9571,3.9548,3.9654,3.9663,3.9671,3.9707,3.972,3.957,3.957,3.957,3.957,0,3.8433,3.8528,3.8585,3.8717,3.8787,3.8878,3.8962,3.9025,3.9063,3.9125,3.9247,3.9339,3.9454,3.949,3.9527,3.9636,3.9631,3.9638,3.9627,3.968,3.9715,3.9729,3.9569,3.9569,3.957,3.957,0,0,3.847,3.864,3.866,3.8722,3.885,3.8925,3.9019,3.9133,3.9187,3.9279,3.9362,3.9499,3.9508,3.9575,3.9622,3.9681,3.9752,3.9682,3.9686,3.9694,3.9881,3.9876,3.9891,3.9771,3.9774,3.9776,3.9873,0,3.8549,3.8721,3.8787,3.8927,3.9017,3.9069,3.9152,3.924,3.9301,3.9387,3.9454,3.9551,3.9554,3.9596,3.9656,3.973,3.9791,3.9724,3.9851,3.9855,3.9825,3.9908,3.9903,3.999,3.9887,3.9889,3.9891,0,3.8665,3.876,3.8909,3.9029,3.9069,3.9143,3.9253,3.9334,3.9436,3.9476,3.9553,3.9597,3.9699,3.9681,3.9825,3.9778,3.9834,3.9878,3.9884,3.99,3.9877,3.9929,4.002,4.0034,3.9912,3.991,3.9909,0,3.8681,3.8846,3.8958,3.9008,3.915,3.9201,3.9262,3.9362,3.9427,3.9523,3.9567,3.9673,3.9733,3.9815,3.9887,3.9866,4.0026,4.0013,4.0065,4.0063,4.0097,4.0095,4.02,4.0129,4.0128,4.0128,4.0128,0,3.8764,3.8854,3.8967,3.9036,3.9139,3.9215,3.9315,3.938,3.9469,3.9552,3.9603,3.968,3.9769,3.9859,3.9916,4.0028,4.0054,4.0091,4.0106,4.0088,4.0084,4.0127,4.0124,4.0132,4.0131,4.013,4.013,0,3.8799,3.8879,3.9005,3.9129,3.9162,3.9233,3.934,3.941,3.9473,3.9579,3.9608,3.9708,3.9816,3.9896,4.0035,4.0074,4.0196,4.0209,4.0161,4.0169,4.0218,4.0213,4.0358,4.0382,4.029,4.0291,4.0292,0,3.8848,3.8919,3.9052,3.9112,3.9173,3.9268,3.9336,3.9413,3.9481,3.9603,3.9659,3.9771,3.9865,4.0035,4.0121,4.0229,4.0247,4.029,4.0264,4.0245,4.0252,4.0248,4.0257,4.0295,4.0295,4.0296,4.0296,0,3.8928,3.8964,3.9059,3.9168,3.9247,3.9337,3.9427,3.9473,3.9567,3.9641,3.9753,3.9825,3.9969,4.008,4.0197,4.0262,4.0296,4.0304,4.0322,4.0306,4.0277,4.0297,4.0175,4.03,4.03,4.03,4.03,4.0299,3.8974,3.9041,3.9146,3.925,3.9327,3.9411,3.9484,3.9557,3.9651,3.9775,3.9814,3.9931,4.0034,4.0194,4.026,4.0353,4.0353,4.0378,4.0385,4.0391,4.0392,4.026,4.0374,4.0374,4.0374,4.0374,4.0374,0,3.9059,3.913,3.9225,3.9351,3.9434,3.9458,3.956,3.9628,3.973,3.9823,3.9915,4.0045,4.0154,4.0249,4.0362,4.0419,4.0438,4.0446,4.0444,4.046,4.0384,4.0359,4.043,4.043,4.043,4.043,4.043,4.043,3.9114,3.9229,3.9278,3.9433,3.9503,3.9618,3.9674,3.9753,3.9828,3.9971,4.0062,4.0123,4.0218,4.0339,4.0441,4.0466,4.0507,4.0513,4.0542,4.0471,4.0464,4.0458,4.0435,4.052,4.052,4.061,4.0611,4.0612]}]]